Time,TemperatureF,DewpointF,PressureIn,WindDirection,WindDirectionDegrees,WindSpeedMPH,WindSpeedGustMPH,Humidity,HourlyPrecipIn,Conditions,Clouds,dailyrainin,SoftwareType,DateUTC
2013-01-26 00:03:00,19.0,14.0,29.99,SSE,157,0.0,0.0,81,0.00,,,0.00,,2013-01-26 05:03:00,
2013-01-26 00:12:00,19.0,14.0,29.99,SSE,157,0.0,0.0,81,0.00,,,0.00,,2013-01-26 05:12:00,
2013-01-26 00:23:00,19.0,14.0,29.99,SSE,157,0.0,0.0,81,0.00,,,0.00,,2013-01-26 05:23:00,
2013-01-26 17:32:00,29.0,25.0,30.20,WSW,238,1.0,-999.0,84,-99.99,,,-99.99,,2013-01-26 22:32:00,
2013-01-26 17:42:00,29.0,25.0,30.20,WSW,238,1.0,-999.0,84,-99.99,,,-99.99,,2013-01-26 22:42:00,
2013-01-26 17:52:00,29.0,24.0,30.21,WNW,285,1.0,1.0,82,-99.99,,,-99.99,,2013-01-26 22:52:00,
2013-01-26 18:02:00,29.0,24.0,30.21,WNW,285,1.0,1.0,82,-99.99,,,-99.99,,2013-01-26 23:02:00,
2013-01-26 18:12:00,29.0,24.0,30.21,WNW,285,1.0,1.0,82,-99.99,,,-99.99,,2013-01-26 23:12:00,
2013-01-26 18:22:00,29.0,24.0,30.21,WNW,285,1.0,1.0,82,-99.99,,,-99.99,,2013-01-26 23:22:00,
2013-01-26 18:32:00,29.0,25.0,30.23,WNW,285,0.0,0.0,83,-99.99,,,-99.99,,2013-01-26 23:32:00,
2013-01-26 18:42:00,29.0,25.0,30.23,WNW,285,0.0,0.0,83,-99.99,,,-99.99,,2013-01-26 23:42:00,
2013-01-26 18:52:00,28.0,24.0,30.23,WNW,294,0.0,0.0,83,0.00,,,-99.99,,2013-01-26 23:52:00,
2013-01-26 19:02:00,28.0,24.0,30.23,WNW,294,0.0,0.0,83,0.00,,,-99.99,,2013-01-27 00:02:00,
2013-01-26 19:12:00,28.0,24.0,30.23,WNW,294,0.0,0.0,83,0.00,,,-99.99,,2013-01-27 00:12:00,
2013-01-26 19:22:00,28.0,24.0,30.23,WNW,294,0.0,0.0,83,0.00,,,-99.99,,2013-01-27 00:22:00,
2013-01-26 19:32:00,27.0,23.0,30.25,WNW,294,1.0,1.0,86,0.00,,,-99.99,,2013-01-27 00:32:00,
2013-01-26 19:42:00,27.0,23.0,30.25,WNW,294,1.0,1.0,86,0.00,,,-99.99,,2013-01-27 00:42:00,
2013-01-26 19:52:00,28.0,24.0,30.26,WNW,294,0.0,0.0,86,0.00,,,-99.99,,2013-01-27 00:52:00,
2013-01-26 20:02:00,28.0,24.0,30.26,WNW,294,0.0,0.0,86,0.00,,,-99.99,,2013-01-27 01:02:00,
2013-01-26 20:11:00,28.0,24.0,30.26,WNW,294,0.0,0.0,86,0.00,,,-99.99,,2013-01-27 01:11:00,
2013-01-26 20:22:00,28.0,24.0,30.26,WNW,294,0.0,0.0,86,0.00,,,-99.99,,2013-01-27 01:22:00,
2013-01-26 20:32:00,28.0,24.0,30.26,WNW,294,0.0,0.0,86,0.00,,,-99.99,,2013-01-27 01:32:00,
2013-01-26 20:52:00,28.0,23.0,30.28,WNW,294,0.0,0.0,82,0.00,,,-99.99,,2013-01-27 01:52:00,
2013-01-26 21:02:00,28.0,23.0,30.28,WNW,294,0.0,0.0,81,0.00,,,-99.99,,2013-01-27 02:02:00,
2013-01-26 21:12:00,28.0,23.0,30.28,WNW,294,0.0,0.0,81,0.00,,,-99.99,,2013-01-27 02:12:00,
2013-01-26 21:22:00,28.0,23.0,30.28,WNW,294,0.0,0.0,81,0.00,,,-99.99,,2013-01-27 02:22:00,
2013-01-26 21:32:00,28.0,23.0,30.28,WNW,294,0.0,0.0,81,0.00,,,-99.99,,2013-01-27 02:32:00,
2013-01-26 21:42:00,28.0,23.0,30.28,WNW,294,0.0,0.0,81,0.00,,,-99.99,,2013-01-27 02:42:00,
2013-01-26 21:52:00,28.0,24.0,30.31,WNW,294,0.0,0.0,83,0.00,,,-99.99,,2013-01-27 02:52:00,
2013-01-26 22:02:00,28.0,24.0,30.31,WNW,294,0.0,0.0,83,0.00,,,-99.99,,2013-01-27 03:02:00,
2013-01-26 22:11:00,28.0,24.0,30.31,WNW,294,0.0,0.0,83,0.00,,,-99.99,,2013-01-27 03:11:00,
2013-01-26 22:21:00,28.0,24.0,30.32,WNW,294,0.0,0.0,83,0.00,,,-99.99,,2013-01-27 03:21:00,
2013-01-26 22:32:00,28.0,23.0,30.33,WNW,294,0.0,0.0,81,0.00,,,-99.99,,2013-01-27 03:32:00,
2013-01-26 22:42:00,28.0,23.0,30.33,WNW,294,0.0,0.0,81,0.00,,,-99.99,,2013-01-27 03:42:00,
2013-01-26 22:52:00,28.0,22.0,30.33,WNW,296,0.0,0.0,78,0.00,,,-99.99,,2013-01-27 03:52:00,
2013-01-26 23:02:00,28.0,20.0,30.34,West,281,5.0,5.0,71,0.00,,,-99.99,,2013-01-27 04:02:00,
2013-01-26 23:12:00,28.0,20.0,30.34,West,281,5.0,5.0,71,0.00,,,-99.99,,2013-01-27 04:12:00,
2013-01-26 23:21:00,28.0,20.0,30.34,West,281,5.0,5.0,71,0.00,,,-99.99,,2013-01-27 04:21:00,
2013-01-26 23:32:00,28.0,20.0,30.34,West,281,5.0,5.0,71,0.00,,,-99.99,,2013-01-27 04:32:00,
2013-01-26 23:42:00,28.0,20.0,30.34,West,281,5.0,5.0,71,0.00,,,-99.99,,2013-01-27 04:42:00,